Location: Croissy-Beaubourg
(48.8283°N, 2.6696°E)
Time: 02:31:40
(UTC+00:00)

Cosmos 2082 - Pass Details

Date: 21 August 2022
Orbit: 832 x 856 km, 71.0° (Epoch: 29 September)

Event Time Altitude Azimuth Distance (km) Brightness Sun altitude
Rises 00:52:58 0° 336° (NNW) 3,408 7.5 -27.6°
Reaches altitude 10° 00:56:00 10° 351° (N) 2,474 6.9 -27.4°
Maximum altitude 01:00:20 22° 41° (NE) 1,783 6.0 -27.2°
Drops below altitude 10° 01:04:40 10° 91° (E) 2,478 6.3 -27.0°
Sets 01:07:42 0° 107° (ESE) 3,414 6.9 -26.8°
